Погода в Камышеве

Россия / Свердловская область     56°32′23″N   61°20′54″E
темп.,
°C
ветер,
м/с
пор.,
м/с
влажн.,
%
обл.,
%
осадки,
мм/ч
давл.,
гПа
погр.,
м
3 августа, вт
вт323:00+19зюз2269100 0.0 101337
02:00+16зюз3894100 1.1 1013151
05:00+16з399389 1.9 1013203
08:00+19з3987100 0.1 1013276
11:00+25зсз4660100 0.1 1013872
14:00+27сз4750100 0.0 10121516
17:00+23ссз4876100 0.5 1013428
20:00+22сз228336 0.0 101239
4 августа, ср
ср423:00+18с0091100 0.0 101311
02:00+17юз119441 0.0 101411
05:00+17ю11945 0.0 101411
08:00+21ююз237642 0.0 1014250
11:00+27ююв22525 0.0 1013910
14:00+31ююв12405 0.0 10121648
17:00+31юв223710 0.0 10112199
20:00+25юв39642 0.0 1010212
5 августа, чт
чт523:00+19вюв398849 1.1 1012190
02:00+18ююв398955 0.4 1011213
05:00+17ююз389071 0.4 1010152
08:00+22ю237270 0.0 1009164
11:00+29ююз234599 0.0 1009807
14:00+33ююз133170 0.0 10071736
17:00+32зюз343359 0.0 10071366
20:00+25зсз3563100 0.0 1007106
6 августа, пт
пт623:00+16з4997100 4.4 1009194
02:00+16зсз41192100 0.0 1009416
05:00+13з499634 0.0 1010384
08:00+16зсз4881100 0.0 1010909
11:00+19зсз5667100 0.0 10101084
14:00+16зсз577799 0.1 1011789
17:00+16зсз5776100 0.1 1012871
20:00+15зсз5983100 0.1 1012683
7 августа, сб
сб723:00+15сз5107814 0.1 1012584
02:00+16сз51074100 0.0 1012615
05:00+15сз4107883 0.0 1013460
08:00+15зсз4874100 0.0 1014434
11:00+19сз575019 0.0 10141160
14:00+23сз56350 0.0 10141850
17:00+23сз56365 0.0 10152039
20:00+18сз39555 0.0 1016281